Вернуться в каталог

STARLINK-4504

АктивенСвязьVLEO
NORAD 53555·PAYLOAD·🇺🇸 United States

Запущен Aug 19, 2022 с Cape Canaveral Space Force Station

Loading…

Ближайшие Пролёты (ближайшие 24 часа)

TLE

СвежийSource: CelesTrak SupGP

Эпоха: Sep 14, 2026, 21:44 UTC

1 53555C 22101AE  26257.90604167  .00025613  00000+0  16065-2 0  2577
2 53555  53.1593 294.0677 0001170  83.6118 211.7854 15.08814530    16

Отслеживайте STARLINK-4504 в реальном времени с AllMySat

Download on the App Store